Location: Newark
(55.7816°N, 8.2389°E)
Time: 12:39:09
(UTC+00:00)

N. Korean satellite - Visible Passes

Search period start: 21 January 2021 00:00
Search period end: 31 January 2021 00:00
Orbit: 453 x 502 km, 97.2° (Epoch: 20 January)

Date Brightness Start Highest point End Pass type
(mag) Time Alt. Az. Time Alt. Az. Time Alt. Az.
21 Jan 7.1 04:56:11 10° NNE 04:59:41 57° E 05:03:06 10° S visible
21 Jan 8.0 06:30:13 10° NNW 06:32:40 18° WNW 06:35:05 10° WSW visible
21 Jan 9.8 17:13:09 10° WSW 17:15:15 15° W 17:17:22 10° NW visible
22 Jan 8.4 04:29:49 10° NNE 04:32:59 30° E 04:36:05 10° SSE visible
22 Jan 7.3 06:03:11 10° N 06:06:18 29° WNW 06:09:21 10° SW visible
22 Jan 9.2 16:45:22 10° SSW 16:48:26 25° W 16:51:30 10° NW visible
23 Jan 9.4 04:03:48 10° NE 04:06:11 17° E 04:08:33 10° SE visible
23 Jan 6.5 05:36:24 10° N 05:39:50 52° WNW 05:43:12 10° SSW visible
23 Jan 8.0 16:18:12 10° S 16:21:43 44° W 16:25:13 10° NNW visible
24 Jan 6.5 05:09:44 10° NNE 05:13:16 81° ESE 05:16:44 10° SSW visible
24 Jan 8.3 06:44:14 10° NNW 06:46:06 14° NW 06:47:57 10° W visible
24 Jan 10.2 17:28:03 10° W 17:29:00 11° W 17:29:56 10° WNW visible
25 Jan 7.7 04:43:16 10° NNE 04:46:37 41° E 04:49:54 10° S visible
25 Jan 7.7 06:16:58 10° N 06:19:45 22° WNW 06:22:30 10° WSW visible
25 Jan 9.7 16:59:29 10° SW 17:02:07 19° W 17:04:45 10° NW visible
26 Jan 8.9 04:17:01 10° NE 04:19:51 23° E 04:22:38 10° SSE visible
26 Jan 6.9 05:50:03 10° N 05:53:20 38° WNW 05:56:32 10° SW visible
26 Jan 8.7 16:32:02 10° SSW 16:35:20 32° W 16:38:38 10° NNW visible
27 Jan 9.8 03:51:19 10° ENE 03:53:00 13° E 03:54:39 10° ESE visible
27 Jan 6.3 05:23:19 10° N 05:26:48 72° WNW 05:30:13 10° SSW visible
28 Jan 7.0 04:56:44 10° NNE 05:00:11 58° ESE 05:03:34 10° S visible
28 Jan 8.0 06:30:48 10° NNW 06:33:10 17° WNW 06:35:30 10° WSW visible
28 Jan 9.9 17:13:49 10° WSW 17:15:47 14° W 17:17:46 10° NW visible
29 Jan 8.4 04:30:21 10° NNE 04:33:28 30° E 04:36:32 10° SSE visible
29 Jan 7.3 06:03:44 10° N 06:06:45 28° WNW 06:09:45 10° SW visible
29 Jan 9.3 16:45:58 10° SSW 16:48:57 24° W 16:51:56 10° NW visible
30 Jan 9.4 04:04:17 10° NE 04:06:39 17° E 04:08:59 10° SE visible
30 Jan 6.5 05:36:54 10° N 05:40:17 51° WNW 05:43:37 10° SSW visible
